Regional Weather Roundup
Issued by NWS

Home | Current Version | Previous Version | Graphics & Text | Print | Product List | Glossary On
Versions: 1 2 3 4 5 6 7 8 9 10 11 12 13 14 15 16 17 18 19 20 21 22 23 24 25 26 27 28 29 30 31 32 33 34 35 36 37 38 39 40 41 42 43 44 45 46 47 48 49 50
000
ASUS43 KFSD 240102
RWRSD

WEATHER ROUNDUP FOR SOUTH DAKOTA
NATIONAL WEATHER SERVICE SIOUX FALLS SD
800 PM CDT SUN APR 23 2017

NOTE: "FAIR" INDICATES FEW OR NO CLOUDS BELOW 12,000 FEET WITH NO
SIGNIFICANT WEATHER AND/OR OBSTRUCTIONS TO VISIBILITY.


SDZ001>005-009-010-012>017-240200-
NORTHWEST AND NORTH CENTRAL SOUTH DAKOTA

CITY           SKY/WX    TMP DP  RH WIND       PRES   REMARKS
BUFFALO          N/A     50  39  66 E20       29.64F
FAITH            N/A     51  42  71 NE25      29.68F
MOBRIDGE       CLOUDY    46  35  65 NE21G31   29.72R
$$

SDZ012>016-024>037-041>051-057-063-072>074-240200-
SOUTHWEST AND SOUTH CENTRAL SOUTH DAKOTA

CITY           SKY/WX    TMP DP  RH WIND       PRES   REMARKS
RAPID CTY ARPT CLOUDY    64  42  44 N14       29.64F
PIERRE         PTCLDY    70  43  37 N3        29.60F
CUSTER         CLOUDY    57  37  47 E9        29.71S
ELLSWORTH AFB  CLOUDY    64  41  43 NE12      29.64F
PHILIP         CLOUDY    68  45  43 NE13      29.60F
PINE RIDGE     CLOUDY    69  38  32 S14       29.63F
SPEARFISH      FAIR      55  41  58 E12       29.67F
WINNER         FAIR      70  35  27 S15       29.67F
$$

SDZ004>011-016>023-039-040-240200-
NORTHEAST SOUTH DAKOTA

CITY           SKY/WX    TMP DP  RH WIND       PRES   REMARKS
ABERDEEN       CLOUDY    56  41  57 NE22G31   29.72R
WATERTOWN      CLEAR     62  35  36 S9        29.75F
BROOKINGS      CLEAR     65  31  28 MISG      29.77F
SISSETON         N/A     57  44  62 E22G29    29.76S
$$

SDZ017-020-022-023-036>040-048>070-240200-
SOUTHEAST SOUTH DAKOTA

CITY           SKY/WX    TMP DP  RH WIND       PRES   REMARKS
SIOUX FALLS    MOCLDY    66  33  29 S12       29.79F
HURON          CLEAR     69  30  23 S10       29.69F
CHAMBERLAIN    CLOUDY    69  35  28 SE13      29.67F
MITCHELL       CLEAR     70  27  20 S21G28    29.72F
YANKTON        PTCLDY    70  27  19 S16G23    29.77F
$$

ABBREVIATIONS USED IN REMARKS
   TC - TEMPERATURE IN CELSIUS
  WCI - WIND CHILL INDEX
   HX - HEAT INDEX
  VSB - VISIBILITY





USA.gov is the U.S. government's official web portal to all federal, state and local government web resources and services.